[[{"header":{"parameterUnit":"m.s-1","parameterCategory":1,"la1":30.2991,"la2":30.254,"lo1":-89.0895,"lo2":-89.0444,"dy":0.0017,"dx":0.0017,"nx":28,"ny":28,"refTime":"2024-08-08T03:00:00:Z","depth":0,"parameterNumber":2,"parameterNumberName":"U-component_of_WINDS"},"data":[0,0,0,0,0,0,0,0,0,0,0,0,0,0,0,0,0,0,0,0,0,0,0,0,0,0,0,0,0,0,0,0,0,0,0,0,0,0,0,0,0,0,0,0,0,0,0,0,0,0,0,0,0,0,0,0,0,0,-0.1708,-0.1709,0,-0.1719,-0.1719,-0.1719,-0.1682,-0.1681,-0.168,-0.1679,-0.1687,-0.1688,-0.1689,0,0,0,0,0,0,0,0,0,0,0,0,0,-0.1655,-0.1656,-0.1708,-0.1709,-0.1709,-0.1719,-0.1719,-0.1719,-0.1682,-0.1681,-0.168,-0.1678,-0.1686,-0.1688,-0.1689,0,0,0,0,0,0,0,0,0,0,0,0,0,-0.1673,-0.1656,-0.1708,-0.1692,-0.169,-0.1719,-0.1719,-0.1719,-0.1683,-0.1681,-0.1679,-0.1678,-0.1686,-0.1688,-0.1689,-0.1734,0,0,-0.1695,-0.1696,0,0,0,0,0,0,0,0,-0.1672,-0.1675,-0.1694,-0.1693,-0.1691,-0.1698,-0.1703,-0.1724,-0.1683,-0.1685,-0.1679,-0.1677,-0.1691,-0.1693,-0.1698,-0.1734,-0.1734,-0.1695,-0.1696,-0.1697,-0.1698,0,0,0,0,0,0,0,-0.1671,-0.1674,-0.1712,-0.1694,-0.1693,-0.1683,-0.1684,-0.1707,-0.1697,-0.1685,-0.1682,-0.1684,-0.169,-0.1696,-0.1698,-0.1734,-0.1695,-0.1697,-0.1698,-0.1699,-0.1808,-0.1809,0,0,0,0,0,0,-0.1672,-0.1673,-0.1712,-0.1713,-0.1678,-0.1685,-0.1686,-0.1697,-0.1697,-0.1696,-0.1686,-0.1683,-0.1694,-0.1696,-0.1698,-0.1751,-0.1697,-0.1699,-0.17,-0.1806,-0.1808,-0.181,0,0,0,0,0,0,-0.1671,-0.1676,-0.1712,-0.1692,-0.1696,-0.1688,-0.1701,-0.1698,-0.1704,-0.1698,-0.1696,-0.1694,-0.1693,-0.1696,-0.1725,-0.175,-0.17,-0.1701,-0.1804,-0.1807,-0.1809,-0.1856,0,0,0,0,0,0,-0.167,-0.1676,-0.1693,-0.1693,-0.1697,-0.174,-0.1702,-0.17,-0.1708,-0.1704,-0.1705,-0.1703,-0.1692,-0.1723,-0.1727,-0.1752,-0.1703,-0.1802,-0.1805,-0.1808,-0.1852,-0.186,-0.1866,0,0,0,0,0,-0.1668,-0.1705,-0.1694,-0.1699,-0.1719,-0.1741,-0.1743,-0.173,-0.171,-0.1727,-0.1723,-0.1703,-0.1747,-0.1726,-0.1731,-0.1757,-0.18,-0.1804,-0.1808,-0.1849,-0.1858,-0.1866,0,0,0,0,0,0,-0.1706,-0.1704,-0.1692,-0.173,-0.1736,-0.1735,-0.1756,-0.1741,-0.1752,-0.1747,-0.173,-0.173,-0.1764,-0.1763,-0.174,-0.18,-0.177,-0.1775,-0.1799,-0.1808,-0.1815,-0.1815,-0.1704,0,0,0,0,0,-0.1719,-0.1738,-0.1735,-0.1769,-0.1773,-0.1764,-0.1773,-0.1763,-0.1768,-0.177,-0.1768,-0.1773,-0.1787,-0.1798,-0.1811,-0.1851,-0.1851,-0.1871,-0.1879,-0.1885,-0.1889,-0.1912,-0.1921,-0.1823,-0.1823,-0.1823,0,0,-0.1746,-0.1747,-0.176,-0.1777,-0.178,-0.18,-0.1766,-0.1788,-0.1802,-0.1773,-0.1801,-0.18,-0.1804,-0.184,-0.1856,-0.1841,-0.1916,-0.189,-0.1895,-0.1896,-0.1917,-0.1926,-0.1934,-0.1826,-0.1826,-0.1825,0,0,-0.1805,-0.1808,-0.1837,-0.1841,-0.1848,-0.1842,-0.1849,-0.185,-0.1848,-0.1877,-0.1856,-0.1872,-0.1898,-0.1902,-0.1908,-0.197,-0.1952,-0.1974,-0.2012,-0.2034,-0.2042,-0.2049,-0.2072,-0.208,-0.1979,-0.1979,-0.1979,0,-0.1837,-0.1867,-0.1853,-0.1878,-0.1886,-0.1861,-0.1891,-0.1895,-0.1905,-0.1911,-0.1894,-0.1927,-0.1928,-0.1965,-0.198,-0.1985,-0.1993,-0.1974,-0.2042,-0.2049,-0.2055,-0.2076,-0.2085,-0.1982,-0.1982,-0.1981,-0.1981,0,-0.1906,-0.1927,-0.195,-0.1962,-0.1973,-0.1999,-0.1989,-0.2002,-0.1991,-0.1986,-0.2016,-0.2017,-0.203,-0.2038,-0.2027,-0.2074,-0.2065,-0.2045,-0.2015,-0.2067,-0.2087,-0.2095,-0.1986,-0.1985,-0.1984,-0.1983,0,0,-0.1989,-0.1995,-0.2003,-0.2009,-0.2014,-0.203,-0.2055,-0.207,-0.2081,-0.2089,-0.211,-0.2133,-0.2115,-0.2122,-0.2111,-0.213,-0.218,-0.2108,-0.2108,-0.2122,-0.2233,-0.2248,-0.2258,-0.2169,-0.217,-0.2171,-0.2233,0,-0.2048,-0.2093,-0.2082,-0.2127,-0.2146,-0.2124,-0.2146,-0.2151,-0.2148,-0.2164,-0.216,-0.2177,-0.2152,-0.2156,-0.2174,-0.2171,-0.2203,-0.2166,-0.2188,-0.2189,-0.2188,-0.2268,-0.2284,-0.2342,-0.2241,-0.2242,-0.2243,0,-0.2122,-0.2135,-0.2182,-0.2185,-0.2193,-0.2213,-0.2227,-0.2242,-0.2248,-0.2244,-0.2252,-0.2238,-0.2263,-0.2232,-0.2266,-0.2242,-0.225,-0.2249,-0.2251,-0.2253,-0.2219,-0.2273,-0.236,-0.2369,-0.2255,-0.2254,-0.2253,0,-0.2179,-0.2207,-0.2239,-0.2244,-0.2249,-0.2265,-0.2267,-0.2271,-0.2281,-0.2292,-0.2299,-0.2312,-0.2319,-0.233,-0.2319,-0.2298,-0.2355,-0.2323,-0.2353,-0.2353,-0.2366,-0.2365,-0.2457,-0.2371,-0.2371,-0.237,-0.237,0,-0.2246,-0.2275,-0.2265,-0.2285,-0.2317,-0.2305,-0.2337,-0.2337,-0.2341,-0.236,-0.2341,-0.2359,-0.2344,-0.236,-0.2352,-0.2382,-0.2385,-0.2383,-0.238,-0.2385,-0.2385,-0.239,-0.2386,-0.2373,-0.2372,-0.2372,-0.2371,0,-0.2314,-0.2308,-0.2342,-0.2345,-0.2346,-0.237,-0.2372,-0.239,-0.2386,-0.2411,-0.2416,-0.2409,-0.2428,-0.2418,-0.2437,-0.2431,-0.2471,-0.2462,-0.2469,-0.2467,-0.2497,-0.2495,-0.2595,-0.2608,-0.2513,-0.2514,-0.2515,0,-0.2357,-0.238,-0.2386,-0.2398,-0.2403,-0.2422,-0.2433,-0.2421,-0.2433,-0.2442,-0.2459,-0.2476,-0.249,-0.252,-0.2517,-0.2531,-0.2523,-0.2558,-0.2525,-0.253,-0.2525,-0.2524,-0.2526,-0.2564,-0.2565,-0.2566,-0.2567,0,-0.2435,-0.2432,-0.2448,-0.2465,-0.2478,-0.249,-0.25,-0.2511,-0.2499,-0.2513,-0.2533,-0.2544,-0.2564,-0.2581,-0.2594,-0.2596,-0.258,-0.2577,-0.2585,-0.259,-0.2593,-0.2593,-0.2487,-0.2575,-0.2574,-0.2574,-0.2573,-0.2573,-0.2493,-0.2512,-0.252,-0.254,-0.2547,-0.2557,-0.2574,-0.2574,-0.259,-0.2607,-0.2599,-0.2622,-0.2628,-0.2644,-0.2648,-0.2665,-0.2651,-0.2662,-0.2665,-0.2668,-0.2673,-0.2591,-0.2667,-0.2667,-0.2667,-0.2667,-0.2666,0,-0.257,-0.2574,-0.2593,-0.2608,-0.2624,-0.2609,-0.2619,-0.2633,-0.2654,-0.2662,-0.2676,-0.2699,-0.2716,-0.2715,-0.273,-0.2745,-0.2738,-0.2749,-0.2748,-0.2749,-0.2684,-0.2676,-0.2755,-0.2755,-0.2755,-0.2755,-0.2755,-0.2754,-0.2612,-0.2645,-0.2643,-0.2679,-0.2682,-0.2706,-0.2714,-0.2723,-0.2729,-0.2757,-0.2772,-0.2771,-0.2775,-0.2791,-0.2806,-0.2805,-0.2812,-0.2826,-0.2823,-0.2762,-0.2753,-0.2745,-0.2738,-0.2828,-0.2828,-0.2886,-0.2887,-0.2887]},{"header":{"parameterUnit":"m.s-1","parameterCategory":1,"la1":30.2991,"la2":30.254,"lo1":-89.0895,"lo2":-89.0444,"dy":0.0017,"dx":0.0017,"nx":28,"ny":28,"refTime":"2024-08-08T03:00:00:Z","depth":0,"parameterNumber":3,"parameterNumberName":"V-component_of_WINDS"},"data":[0,0,0,0,0,0,0,0,0,0,0,0,0,0,0,0,0,0,0,0,0,0,0,0,0,0,0,0,0,0,0,0,0,0,0,0,0,0,0,0,0,0,0,0,0,0,0,0,0,0,0,0,0,0,0,0,0,0,-5.3639,-5.3641,0,-5.3817,-5.3819,-5.382,-5.3837,-5.3835,-5.3834,-5.3832,-5.4007,-5.4014,-5.402,0,0,0,0,0,0,0,0,0,0,0,0,0,-5.3313,-5.3319,-5.3639,-5.3641,-5.3644,-5.3816,-5.3819,-5.3821,-5.3838,-5.3835,-5.3833,-5.3831,-5.4005,-5.4013,-5.4021,0,0,0,0,0,0,0,0,0,0,0,0,0,-5.3469,-5.3321,-5.3639,-5.3673,-5.3678,-5.3816,-5.3819,-5.3822,-5.3838,-5.3835,-5.3833,-5.383,-5.4003,-5.4012,-5.4022,-5.4136,0,0,-5.4051,-5.4055,0,0,0,0,0,0,0,0,-5.346,-5.3481,-5.3666,-5.3671,-5.3677,-5.3802,-5.3768,-5.3927,-5.3839,-5.3777,-5.3832,-5.3829,-5.3941,-5.3955,-5.3995,-5.4144,-5.4152,-5.4052,-5.4058,-5.4062,-5.4064,0,0,0,0,0,0,0,-5.3449,-5.3473,-5.3709,-5.3668,-5.3675,-5.3679,-5.3698,-5.3798,-5.3872,-5.3782,-5.3784,-5.3805,-5.3943,-5.3985,-5.3999,-5.4154,-5.4051,-5.406,-5.4066,-5.407,-5.441,-5.4413,0,0,0,0,0,0,-5.3433,-5.3464,-5.3704,-5.3714,-5.3559,-5.3687,-5.3708,-5.3764,-5.3871,-5.3885,-5.3807,-5.3805,-5.397,-5.3988,-5.4005,-5.4148,-5.4062,-5.4071,-5.4076,-5.4407,-5.4411,-5.4414,0,0,0,0,0,0,-5.3425,-5.3454,-5.3696,-5.359,-5.3621,-5.3695,-5.3758,-5.3769,-5.3811,-5.389,-5.3903,-5.3837,-5.3969,-5.3992,-5.4105,-5.4154,-5.4075,-5.4084,-5.4403,-5.4408,-5.4413,-5.4432,0,0,0,0,0,0,-5.3416,-5.3451,-5.3495,-5.3591,-5.3627,-5.3793,-5.3762,-5.3775,-5.3829,-5.3828,-5.3921,-5.3934,-5.3968,-5.409,-5.4114,-5.4166,-5.4091,-5.4399,-5.4405,-5.4411,-5.4428,-5.4437,-5.4446,0,0,0,0,0,-5.3404,-5.3492,-5.3498,-5.3526,-5.3684,-5.3796,-5.3817,-5.3856,-5.3832,-5.3878,-5.3929,-5.3931,-5.4145,-5.4102,-5.4129,-5.4184,-5.4396,-5.4403,-5.441,-5.4424,-5.4436,-5.4446,0,0,0,0,0,0,-5.3397,-5.3505,-5.3512,-5.3634,-5.3706,-5.3799,-5.3857,-5.3867,-5.3946,-5.3942,-5.3986,-5.4007,-5.4119,-5.4163,-5.4112,-5.4302,-5.4268,-5.4281,-5.4269,-5.4281,-5.4289,-5.4276,-5.4099,0,0,0,0,0,-5.341,-5.3494,-5.3583,-5.3681,-5.3718,-5.3781,-5.3831,-5.3857,-5.3932,-5.3962,-5.4021,-5.4094,-5.4178,-5.4232,-5.4313,-5.4435,-5.4456,-5.4487,-5.4496,-5.4503,-5.4513,-5.4583,-5.4598,-5.4439,-5.4439,-5.4438,0,0,-5.3437,-5.3506,-5.3555,-5.3682,-5.3741,-5.3826,-5.3806,-5.3896,-5.396,-5.3975,-5.4086,-5.4133,-5.4217,-5.4335,-5.439,-5.4375,-5.4563,-5.4512,-5.4517,-5.4524,-5.4592,-5.4607,-5.4621,-5.4444,-5.4443,-5.4442,0,0,-5.3528,-5.3589,-5.3679,-5.374,-5.3831,-5.3874,-5.3896,-5.3989,-5.4021,-5.4134,-5.4149,-5.4224,-5.4367,-5.4428,-5.4477,-5.4597,-5.4602,-5.4623,-5.4669,-5.4737,-5.4749,-5.4761,-5.4804,-5.4819,-5.4633,-5.4633,-5.4633,0,-5.3549,-5.3679,-5.3723,-5.3815,-5.387,-5.3893,-5.3984,-5.4041,-5.4152,-5.419,-5.4173,-5.4356,-5.4414,-5.4548,-5.4578,-5.4617,-5.4643,-5.4611,-5.4744,-5.4756,-5.4767,-5.4809,-5.4826,-5.4635,-5.4635,-5.4635,-5.4634,0,-5.3701,-5.3791,-5.3852,-5.3964,-5.4027,-5.4117,-5.4176,-5.4234,-5.4255,-5.4299,-5.4415,-5.4487,-5.4584,-5.4618,-5.4638,-5.4756,-5.4744,-5.4735,-5.4702,-5.4784,-5.4824,-5.484,-5.4638,-5.4637,-5.4636,-5.4636,0,0,-5.3788,-5.3927,-5.3949,-5.4001,-5.4106,-5.4176,-5.4269,-5.4367,-5.4417,-5.4494,-5.4573,-5.4697,-5.4691,-5.4746,-5.4774,-5.4833,-5.4926,-5.4817,-5.482,-5.4835,-5.5062,-5.5068,-5.5086,-5.4931,-5.4935,-5.4937,-5.5055,0,-5.3892,-5.4059,-5.4104,-5.4246,-5.433,-5.4355,-5.4436,-5.4509,-5.4554,-5.4632,-5.4682,-5.4769,-5.4754,-5.4788,-5.4848,-5.4902,-5.4972,-5.4894,-5.5004,-5.5007,-5.4981,-5.5107,-5.5112,-5.5219,-5.5071,-5.5074,-5.5076,0,-5.4034,-5.4118,-5.4269,-5.4366,-5.4403,-5.4475,-5.4571,-5.4646,-5.473,-5.4759,-5.4824,-5.4847,-5.4945,-5.4909,-5.5045,-5.4991,-5.5039,-5.5073,-5.5078,-5.5088,-5.5045,-5.512,-5.5255,-5.527,-5.5101,-5.5099,-5.5097,0,-5.4083,-5.4234,-5.4345,-5.4389,-5.4505,-5.4555,-5.4606,-5.4688,-5.4745,-5.4829,-5.4867,-5.4959,-5.501,-5.5081,-5.5129,-5.5098,-5.5262,-5.5228,-5.5288,-5.5287,-5.5319,-5.5316,-5.5463,-5.5352,-5.5351,-5.5351,-5.5351,0,-5.4193,-5.4284,-5.4369,-5.4437,-5.4541,-5.4593,-5.4694,-5.4745,-5.4818,-5.4896,-5.4923,-5.4996,-5.5055,-5.5136,-5.5174,-5.5282,-5.5304,-5.533,-5.5339,-5.5327,-5.5324,-5.5358,-5.5351,-5.5356,-5.5355,-5.5354,-5.5353,0,-5.4264,-5.4325,-5.4447,-5.4549,-5.4577,-5.4649,-5.4736,-5.4803,-5.4851,-5.495,-5.4976,-5.5051,-5.5148,-5.5204,-5.5325,-5.5351,-5.547,-5.5476,-5.5442,-5.5446,-5.5502,-5.5496,-5.5675,-5.5701,-5.5573,-5.5574,-5.5575,0,-5.4329,-5.4401,-5.4512,-5.4568,-5.462,-5.4708,-5.4769,-5.4824,-5.4885,-5.4989,-5.5044,-5.5143,-5.5225,-5.5379,-5.5444,-5.5538,-5.5545,-5.5602,-5.5559,-5.5546,-5.5546,-5.5541,-5.5549,-5.5608,-5.5609,-5.561,-5.5611,0,-5.4439,-5.4467,-5.4553,-5.4652,-5.4724,-5.4803,-5.4882,-5.4926,-5.4995,-5.5062,-5.5164,-5.5228,-5.5355,-5.5453,-5.5553,-5.5604,-5.5619,-5.5625,-5.5643,-5.5631,-5.5609,-5.5622,-5.5461,-5.5619,-5.5618,-5.5618,-5.5617,-5.5617,-5.4509,-5.4575,-5.4665,-5.4761,-5.4827,-5.4902,-5.4971,-5.503,-5.5116,-5.5225,-5.5252,-5.5359,-5.5444,-5.5581,-5.5635,-5.5719,-5.5709,-5.5736,-5.5742,-5.5748,-5.575,-5.5597,-5.5738,-5.5737,-5.5737,-5.5737,-5.5737,0,-5.462,-5.468,-5.4769,-5.4881,-5.4957,-5.4969,-5.5058,-5.5121,-5.5215,-5.5295,-5.5377,-5.5495,-5.5592,-5.5666,-5.5765,-5.5818,-5.5828,-5.5843,-5.5838,-5.585,-5.5753,-5.5727,-5.5833,-5.5833,-5.5833,-5.5833,-5.5833,-5.5833,-5.4686,-5.4799,-5.4839,-5.4985,-5.5045,-5.5151,-5.5202,-5.5271,-5.5335,-5.5466,-5.5548,-5.5598,-5.5676,-5.5782,-5.5872,-5.5891,-5.5926,-5.594,-5.596,-5.5867,-5.5857,-5.5847,-5.5822,-5.5947,-5.5947,-5.605,-5.6051,-5.6052]}]]